• In Hungary
  • List of Countries
  • For 7 days
  • Water Temperature
  • Satellite Maps
  • Weather Map
  • News
  • Weather Widgets
  • user-avatar
    Login

    Hourly Weather Hlinsko

    Today, 22 October, Sunday

    Time Temperature Precipitation Wind Pressure Humidity
    00:00 +10°C° 0.1 mm 1 mps 706 mmHg 91%
    01:00 +9°C° 0.1 mm 2 mps 706 mmHg 92%
    02:00 +9°C° 0.6 mm 2 mps 705 mmHg 93%
    03:00 +9°C° 0.6 mm 2 mps 705 mmHg 93%
    04:00 +9°C° 0.6 mm 2 mps 705 mmHg 94%
    05:00 +9°C° 1.6 mm 3 mps 705 mmHg 94%
    06:00 +8°C° 1.6 mm 4 mps 705 mmHg 94%
    07:00 +8°C° 1.6 mm 5 mps 705 mmHg 93%
    08:00 +8°C° 1.6 mm 5 mps 705 mmHg 92%
    09:00 +8°C° 1.6 mm 5 mps 706 mmHg 90%
    10:00 +7°C° 1.6 mm 5 mps 706 mmHg 88%
    11:00 +8°C° 0.2 mm 5 mps 706 mmHg 85%
    12:00 +8°C° 0.2 mm 4 mps 706 mmHg 81%
    13:00 +10°C° 0.2 mm 4 mps 706 mmHg 77%
    14:00 +10°C° 0 mm 4 mps 705 mmHg 77%
    15:00 +8°C° 0 mm 4 mps 705 mmHg 76%
    16:00 +9°C° 0 mm 3 mps 705 mmHg 76%
    17:00 +9°C° 0 mm 3 mps 705 mmHg 78%
    18:00 +8°C° 0 mm 3 mps 705 mmHg 79%
    19:00 +7°C° 0 mm 3 mps 705 mmHg 81%
    20:00 +7°C° 0 mm 3 mps 705 mmHg 82%
    21:00 +5°C° 0 mm 3 mps 705 mmHg 83%
    22:00 +4°C° 0 mm 3 mps 705 mmHg 85%
    23:00 +4°C° 0 mm 3 mps 705 mmHg 85%

    Tomorrow, 23 October, Monday

    Time Temperature Precipitation Wind Pressure Humidity
    00:00 +4°C° 0 mm 3 mps 705 mmHg 86%
    01:00 +4°C° 0 mm 3 mps 705 mmHg 87%
    02:00 +4°C° 0 mm 3 mps 705 mmHg 87%
    03:00 +4°C° 0 mm 3 mps 705 mmHg 87%
    04:00 +4°C° 0 mm 3 mps 705 mmHg 87%
    05:00 +4°C° 0 mm 4 mps 706 mmHg 87%
    06:00 +4°C° 0 mm 4 mps 706 mmHg 87%
    07:00 +4°C° 0 mm 4 mps 706 mmHg 87%
    08:00 +5°C° 0 mm 5 mps 706 mmHg 84%
    09:00 +5°C° 0 mm 5 mps 706 mmHg 80%
    10:00 +5°C° 0 mm 6 mps 706 mmHg 77%
    11:00 +5°C° 0 mm 6 mps 707 mmHg 75%
    12:00 +7°C° 0 mm 5 mps 707 mmHg 72%
    13:00 +7°C° 0 mm 5 mps 707 mmHg 70%
    14:00 +7°C° 0 mm 5 mps 707 mmHg 73%
    15:00 +7°C° 0 mm 5 mps 707 mmHg 75%
    16:00 +6°C° 0 mm 5 mps 707 mmHg 78%
    17:00 +6°C° 0.1 mm 5 mps 707 mmHg 81%
    18:00 +5°C° 0.1 mm 5 mps 707 mmHg 84%
    19:00 +5°C° 0.1 mm 5 mps 708 mmHg 88%
    20:00 +5°C° 0.1 mm 5 mps 708 mmHg 88%
    21:00 +5°C° 0.1 mm 5 mps 708 mmHg 88%
    22:00 +5°C° 0.1 mm 4 mps 708 mmHg 88%
    23:00 +5°C° 0 mm 4 mps 709 mmHg 89%

    Day after tomorrow, 24 October, Tuesday

    Time Temperature Precipitation Wind Pressure Humidity
    00:00 +5°C° 0 mm 4 mps 709 mmHg 90%
    01:00 +5°C° 0 mm 4 mps 709 mmHg 91%
    02:00 +4°C° 0 mm 4 mps 709 mmHg 91%
    03:00 +4°C° 0 mm 4 mps 709 mmHg 92%
    04:00 +4°C° 0 mm 4 mps 710 mmHg 92%
    05:00 +4°C° 0 mm 3 mps 710 mmHg 93%
    06:00 +4°C° 0 mm 3 mps 710 mmHg 93%
    07:00 +4°C° 0 mm 3 mps 710 mmHg 94%
    08:00 +5°C° 0 mm 3 mps 711 mmHg 90%
    09:00 +7°C° 0 mm 3 mps 711 mmHg 85%
    10:00 +7°C° 0 mm 4 mps 712 mmHg 81%
    11:00 +8°C° 0 mm 3 mps 712 mmHg 79%
    12:00 +9°C° 0 mm 3 mps 712 mmHg 76%
    13:00 +10°C° 0 mm 3 mps 712 mmHg 73%
    14:00 +9°C° 0 mm 3 mps 712 mmHg 75%
    15:00 +9°C° 0 mm 2 mps 712 mmHg 77%
    16:00 +9°C° 0 mm 2 mps 712 mmHg 78%
    17:00 +9°C° 0 mm 1 mps 712 mmHg 82%
    18:00 +8°C° 0 mm 1 mps 713 mmHg 85%
    19:00 +7°C° 0 mm 1 mps 713 mmHg 88%
    20:00 +7°C° 0 mm 1 mps 713 mmHg 89%
    21:00 +6°C° 0 mm 1 mps 713 mmHg 90%
    22:00 +6°C° 0 mm 1 mps 713 mmHg 91%
    23:00 +6°C° 0 mm 1 mps 713 mmHg 91%

    25 October, Wednesday

    Time Temperature Precipitation Wind Pressure Humidity
    00:00 +6°C° 0 mm 1 mps 713 mmHg 92%
    01:00 +5°C° 0 mm 1 mps 713 mmHg 92%
    02:00 +5°C° 0 mm 1 mps 713 mmHg 93%
    03:00 +5°C° 0 mm 1 mps 713 mmHg 93%
    04:00 +5°C° 0 mm 1 mps 713 mmHg 94%
    05:00 +5°C° 0 mm 1 mps 713 mmHg 94%
    06:00 +6°C° 0 mm 1 mps 713 mmHg 94%
    07:00 +6°C° 0 mm 1 mps 713 mmHg 95%
    08:00 +7°C° 0 mm 1 mps 714 mmHg 90%
    09:00 +9°C° 0 mm 1 mps 714 mmHg 86%
    10:00 +10°C° 0 mm 1 mps 714 mmHg 82%
    11:00 +10°C° 0 mm 2 mps 714 mmHg 79%
    12:00 +12°C° 0 mm 2 mps 714 mmHg 76%
    13:00 +13°C° 0 mm 2 mps 714 mmHg 72%
    14:00 +13°C° 0 mm 1 mps 713 mmHg 75%
    15:00 +12°C° 0 mm 1 mps 713 mmHg 77%
    16:00 +12°C° 0 mm 1 mps 713 mmHg 80%
    17:00 +11°C° 0 mm 1 mps 713 mmHg 83%
    18:00 +10°C° 0 mm 1 mps 713 mmHg 86%
    19:00 +9°C° 0 mm 1 mps 713 mmHg 89%
    20:00 +9°C° 0 mm 1 mps 713 mmHg 89%
    21:00 +9°C° 0 mm 1 mps 713 mmHg 90%
    22:00 +9°C° 0 mm 1 mps 713 mmHg 90%
    23:00 +9°C° 0 mm 1 mps 713 mmHg 90%

    26 October, Thursday

    Time Temperature Precipitation Wind Pressure Humidity
    00:00 +9°C° 0 mm 1 mps 713 mmHg 90%
    01:00 +8°C° 0 mm 1 mps 713 mmHg 91%
    02:00 +8°C° 0 mm 1 mps 713 mmHg 91%
    03:00 +8°C° 0 mm 1 mps 713 mmHg 91%
    04:00 +8°C° 0 mm 1 mps 713 mmHg 92%
    05:00 +8°C° 0 mm 1 mps 713 mmHg 92%
    06:00 +8°C° 0 mm 1 mps 713 mmHg 92%
    07:00 +8°C° 0 mm 1 mps 713 mmHg 92%
    08:00 +9°C° 0 mm 2 mps 713 mmHg 87%
    09:00 +10°C° 0 mm 2 mps 714 mmHg 81%
    10:00 +13°C° 0 mm 2 mps 714 mmHg 76%
    11:00 +14°C° 0 mm 2 mps 714 mmHg 72%
    12:00 +14°C° 0 mm 3 mps 713 mmHg 69%
    13:00 +16°C° 0 mm 3 mps 713 mmHg 65%
    14:00 +15°C° 0 mm 2 mps 713 mmHg 68%
    15:00 +15°C° 0 mm 2 mps 712 mmHg 72%
    16:00 +14°C° 0 mm 2 mps 712 mmHg 76%
    17:00 +13°C° 0 mm 2 mps 712 mmHg 79%
    18:00 +12°C° 0 mm 2 mps 712 mmHg 82%
    19:00 +10°C° 0 mm 2 mps 712 mmHg 86%
    20:00 +10°C° 0 mm 2 mps 711 mmHg 87%
    21:00 +9°C° 0 mm 2 mps 711 mmHg 89%
    22:00 +9°C° 0 mm 2 mps 711 mmHg 90%
    23:00 +9°C° 0 mm 2 mps 711 mmHg 91%

    27 October, Friday

    Time Temperature Precipitation Wind Pressure Humidity
    00:00 +9°C° 0 mm 2 mps 710 mmHg 92%
    01:00 +8°C° 0 mm 3 mps 710 mmHg 92%
    02:00 +8°C° 0 mm 3 mps 709 mmHg 92%
    03:00 +8°C° 0 mm 3 mps 708 mmHg 92%
    04:00 +8°C° 0 mm 3 mps 708 mmHg 92%
    05:00 +8°C° 0 mm 3 mps 708 mmHg 92%
    06:00 +7°C° 0 mm 4 mps 707 mmHg 92%
    07:00 +7°C° 0 mm 4 mps 707 mmHg 92%
    08:00 +8°C° 0.1 mm 5 mps 707 mmHg 87%
    09:00 +9°C° 0.1 mm 6 mps 707 mmHg 82%
    10:00 +10°C° 0.1 mm 7 mps 707 mmHg 78%
    11:00 +9°C° 0.3 mm 7 mps 707 mmHg 78%
    12:00 +8°C° 0.3 mm 6 mps 707 mmHg 79%
    13:00 +8°C° 0.3 mm 6 mps 707 mmHg 80%
    14:00 +7°C° 0 mm 6 mps 707 mmHg 79%
    15:00 +7°C° 0 mm 5 mps 707 mmHg 77%
    16:00 +7°C° 0 mm 5 mps 706 mmHg 76%
    17:00 +7°C° 0 mm 5 mps 707 mmHg 78%
    18:00 +6°C° 0 mm 5 mps 707 mmHg 80%
    19:00 +5°C° 0 mm 5 mps 707 mmHg 82%
    20:00 +5°C° 0 mm 5 mps 707 mmHg 82%
    21:00 +5°C° 0 mm 5 mps 707 mmHg 81%
    22:00 +4°C° 0 mm 6 mps 707 mmHg 81%
    23:00 +5°C° 0 mm 5 mps 707 mmHg 82%
    Show more